Regional Weather Roundup
Issued by NWS Grand Forks, ND

Home | Current Version | Previous Version | Graphics & Text | Print | Product List | Glossary On
Versions: 1 2 3 4 5 6 7 8 9 10 11 12 13 14 15 16 17 18 19 20 21 22 23 24 25 26 27 28 29 30 31 32 33 34 35 36 37 38 39 40 41 42 43 44 45 46 47 48 49 50
000
ASUS43 KFGF 281410
RWRFGF
PRAIRIE TO PINES  WEATHER ROUNDUP
NATIONAL WEATHER SERVICE EASTERN NORTH DAKOTA/GRAND FORKS ND
800 AM CST FRI NOV 28 2014

 **SATELLITE DATA USED TO AUGMENT SKY COVER AT AUTOMATED STATIONS**
 *****  WEATHER ACROSS EASTERN NORTH DAKOTA  *****

CITY           SKY/WX    TMP DP  RH WIND       PRES   REMARKS
GRAND FORKS    LGT SNOW  12   7  80 E12       29.96F WCI  -2
GRAND FRKS AFB CLOUDY    12   9  85 SE9       29.96F WCI   0
GRAND FRKS NWS   N/A     12 N/A N/A E9          N/A  WCI   0
DEVILS LAKE    CLOUDY     9   0  66 E14       29.86S WCI  -8
FARGO          CLOUDY    14   6  70 SE8       29.96F WCI   3
WAHPETON ARPT  MOSUNNY   10   5  79 SE7       29.95F WCI   0
$$

 ***** WEATHER ACROSS CENTRAL AND WESTERN NORTH DAKOTA  *****

CITY           SKY/WX    TMP DP  RH WIND       PRES   REMARKS
BISMARCK       MOCLDY    11   7  84 E7        29.79R WCI   0
MINOT          CLOUDY     8   3  80 E10       29.80F WCI  -6
JAMESTOWN      CLOUDY     7   3  84 E12       29.84S WCI  -8
MINOT AFB      CLOUDY     8   5  89 E13       29.79F WCI  -8
GARRISON         N/A     11   7  84 E13       29.75F WCI  -4
WILLISTON      CLOUDY    16  12  84 E10       29.69F WCI   4
DICKINSON      CLOUDY    18  14  84 E9        29.62F WCI   7
HETTINGER      MOCLDY    27  23  85 CALM      29.65F
$$

 *****  OTHER AIRPORT OBSERVATIONS IN OUR AREA  *****

CITY           SKY/WX    TMP DP  RH WIND       PRES   REMARKS
WALHALLA       LGT SNOW   9   9 100 E6        29.98F WCI  -1
GRAFTON AIRPOR LGT SNOW  10   9  92 E9        29.98F WCI  -2
VALLEY CITY AR FLURRIES   7   5  92 SE13G18   29.86F WCI  -9
CANDO          CLOUDY     9   5  85 E10       29.89S FOG     WCI  -6
CAVALIER APRT  LGT SNOW  10   7  85 E7        29.98F WCI   0
GWINNER        CLOUDY    10   5  79 E15       29.88F WCI  -6
SHEYENNE NWR     N/A      8   2  76 SE8       29.95S WCI  -4
ROLLA          CLOUDY     7   3  85 E10       29.87R WCI  -8
 ***** THE ABOVE OBSERVATIONS ARE NON NWS ARE NOT QUALITY
       CONTROLLED AND MAY MIS-REPORT RAIN FOR SNOW...
$$

  *****  WEATHER ACROSS NORTHERN MINNESOTA  *****

CITY           SKY/WX    TMP DP  RH WIND       PRES   REMARKS
FLAG ISLAND    CLOUDY     3  -2  78 SE3       30.02S
WARROAD        CLOUDY     7   1  78 E7        30.01F WCI  -5
ROSEAU         CLOUDY     9   3  78 E6        30.00F WCI  -1
HALLOCK        FLURRIES  12   7  79 E3        30.00F
THF RVR FALLS  CLOUDY    10   5  79 E8        29.98S WCI  -1
BAUDETTE       CLOUDY     6  -1  73 E6        30.00F WCI  -4
WASKISH        FLURRIES   9   7  92 CALM      29.99F
CROOKSTON      FLURRIES  12   7  79 E8        29.97F WCI   1
STEPHEN NDAWN    N/A     10   7  85 SE8         N/A  WCI  -1
GREENBUSH NDAW   N/A     10   7  85 E6          N/A  WCI   1
$$
  *****  WEATHER ACROSS CENTRAL AND WEST MINNESOTA  *****

CITY           SKY/WX    TMP DP  RH WIND       PRES   REMARKS
FOSSTON        CLOUDY     9   3  78 E5        29.97S WCI   0
BEMIDJI        FLURRIES   9   4  82 E7        29.95F WCI  -3
PARK RAPIDS    CLOUDY     9   5  84 S7        29.96R WCI  -2
ELBOW LAKE     FAIR      10   4  80 SE10      29.92S HAZE    WCI  -4
WADENA         FLURRIES   7   3  85 E6        29.95R WCI  -3
DETROIT LAKES  CLOUDY    10   5  79 SE9       29.93F WCI  -2
MOORHEAD       CLOUDY    12   9  85 SE3       29.96S
FERGUS FALLS   MOCLDY    10   1  67 E5        29.98R WCI   2
MORRIS MN      PTCLDY    10   5  79 SE12      29.90F WCI  -4
STAPLES        FLURRIES   9   3  78 SE5       29.95F WCI   0
$$
  *****  WEATHER ELSEWHERE ACROSS MINNESOTA  *****

CITY           SKY/WX    TMP DP  RH WIND       PRES   REMARKS
DULUTH         LGT SNOW   9   5  84 SE7       30.01F WCI  -2
INTRNTL FALLS  MOCLDY     5  -1  76 E3        30.03S
ELY            FLURRIES   7   0  72 SE5       30.01F WCI  -2
CLOQUET        LGT SNOW   7   3  85 E6        30.00F WCI  -3
WHEATON        CLOUDY     9   3  78 SE10      29.96R WCI  -6
BRAINERD       CLOUDY     9   5  84 SE8       29.98S WCI  -3
HIBBING        FLURRIES   9   2  73 SE6       30.00F WCI  -1
ALEXANDRIA     MOCLDY     9   5  84 SE10      29.92F WCI  -5
SAINT CLOUD    CLOUDY    12   6  77 E5        29.98F HAZE    WCI   4
MINNEAPOLIS    CLOUDY    13   8  81 E10       30.01F WCI   0
$$

  *****  WEATHER ACROSS SOUTH DAKOTA  *****

CITY           SKY/WX    TMP DP  RH WIND       PRES   REMARKS
SIOUX FALLS    CLOUDY    19  16  88 E3        29.81F
BROOKINGS      NOT AVBL
WATERTOWN      CLOUDY    15  11  83 E7        29.80S WCI   5
HURON          CLOUDY    22  17  81 CALM      29.80S
SISSETON         N/A      8   4  83 S8        29.90F WCI  -4
ABERDEEN       CLOUDY    16  10  77 NE9       29.83F WCI   4
MITCHELL       MOCLDY    21  18  88 E3        29.80S
PIERRE         PTCLDY    16  13  88 NE6       29.73F WCI   7
MOBRIDGE       CLOUDY    19  14  81 SE8       29.72F WCI   9
RAPID CITY     PTCLDY    39  29  67 N14       29.70S
$$

  *****  SOME WEATHER IN NEARBY STATES *****

CITY           SKY/WX    TMP DP  RH WIND       PRES   REMARKS
GLASGOW MT     CLOUDY    19  16  88 E17       29.57F FOG     WCI   4
GREAT FALLS MT PTCLDY    49  34  56 SW24G36   29.52F
CHEYENNE WY    MOCLDY    48  14  25 SW13      29.95S
SCOTTSBLUFF NE PTCLDY    55  22  27 W22G29    29.81F
OMAHA NE       MOCLDY    28  23  81 SE10      29.90F WCI  19
DES MOINES IA  MOCLDY    21  16  81 S14       29.96F WCI   8
DAVENPORT IA   NOT AVBL
CHICAGO IL     FLURRIES  20  14  77 S13       30.26F WCI   7
EAU CLAIRE WI  CLOUDY    12   7  80 SE7       30.07S WCI   1
LA CROSSE WI   CLOUDY    18  10  71 S9        30.08F WCI   7
$$

  *****  SOME NATIONAL WEATHER *****

CITY           SKY/WX    TMP DP  RH WIND       PRES   REMARKS
LA GUARDIA NY  MOSUNNY   34  23  64 NW16      30.17R WCI  24
RALEIGH NC     MOSUNNY   34  23  64 CALM      30.36R
ATLANTA GA     SUNNY     33  22  63 N9        30.39R
NEW ORLEANS LA SUNNY     47  36  65 E8        30.43S
OKLAHOMA CITY  PTCLDY    40  30  67 S9        30.10F
ALBUQUERQUE NM PTCLDY    32  18  56 CALM      30.28S
SALT LAKE CITY CLOUDY    45  23  42 SE8       30.01F
LOS ANGELES CA PTCLDY    56  36  47 VRB5      29.98S
BOISE ID       CLOUDY    40  39  97 SE3       29.85F
SEATTLE WA     CLOUDY    55  49  80 S17G23    29.56F
$$

*** WEATHER ACROSS MANITOBA...SASKATCHEWAN AND ONTARIO ***
                ***ONTARIO***

CITY           SKY/WX    TMP DP  RH WIND       PRES   REMARKS
GERALDTON      PTCLDY   -20 -26  76 CALM      30.07F
THUNDER BAY    MOCLDY    -4  -9  77 W5        30.15F WCI -15
SIOUX LOOKOUT  MOCLDY    -9 -15  77 SE2       30.04F
TORONTO        MOSUNNY   23  12  63 W13G20    30.26R WCI  11
BIG TROUT LK   CLEAR    -15 -18  84 NW7       30.04S WCI -31
PICKLE LAKE    FLURRIES  -9 -15  77 SW3       30.03F
DRYDEN         CLEAR     -6  -9  84 NE2       30.02F
KENORA         MOCLDY    -2  -8  78 SE5       30.02S WCI -12
$$
                *** MANITOBA***

CITY           SKY/WX    TMP DP  RH WIND       PRES   REMARKS
BRANDON        LGT SNOW   7   3  85 E18       29.94F DRFTSNOWWCI -12
DAUPHIN        LGT SNOW   5   1  85 NE9       30.04F WCI  -9
ISLAND LAKE    PTCLDY   -18 -27  63 W3        30.12R
PILOT MOUND      N/A      5   3  92 E7          N/A  WCI  -7
THE PAS        CLOUDY   -11 -17  77 NE5       30.13F WCI -23
THOMPSON       PTCLDY   -27 -35  68 NW2       30.14S
WINNIPEG       MOCLDY     3  -2  78 E5        30.04F WCI  -6
LYNN LAKE      CLEAR    -22 -27  76 W6        30.09F WCI -38
CHURCHILL      CRYSTALS -15 -20  76 W15       30.03S WCI -38
GILLAM         CLEAR    -20 -27  69 W9        30.11F WCI -40
$$
                ***SASKATCHEWAN***

CITY           SKY/WX    TMP DP  RH WIND       PRES   REMARKS
ESTEVAN        LGT SNOW   7   3  85 E17G25    29.74F DRFTSNOWWCI -12
KINDERSLEY     LGT SNOW   7   1  78 NE20G26   29.57F BLWGSNOWWCI -13
LLOYDMINSTER   SNOW      -4  -8  84 NE14      29.72F VSB 1/2 WCI -24
PRINCE ALBERT  LGT SNOW  -2  -8  78 E18G25    29.91F VSB 1   WCI -24
REGINA         LGT SNOW  12   9  85 SE14G22   29.73S DRFTSNOWWCI  -3
YORKTON        FLURRIES   5   0  78 E14       29.88S WCI -12
N. BATTLEFORD  LGT SNOW   1  -4  78 E21       29.75F WCI -20
LA RONGE       MOCLDY    -9 -15  77 NE10      30.07F WCI -28
SASKATOON      LGT SNOW   3  -2  78 E18       29.76F DRFTSNOWWCI -17
SWIFT CURRENT  FOG       12  10  92 E12       29.50F VSB 5/8 WCI  -2
$$
NOTE: THESE ARE AUTOMATED STATIONS WITH LIMITED QUALITY CONTROL
      "FAIR" INDICATES FEW OR NO CLOUDS BELOW 12,000 FEET WITH NO
      SIGNIFICANT WEATHER AND/OR OBSTRUCTIONS TO VISIBILITY.
      SKY/WX - SKY CONDITION AND SIGNIFICANT WEATHER.
      TMP - AIR TEMPERATURE.    DP   - DEWPOINT TEMPERATURE.
      RH  - RELATIVE HUMIDITY.  PRES - PRESSURE.
      HX  - HEAT INDEX.         WCI  - WIND CHILL INDEX.
$



USA.gov is the U.S. government's official web portal to all federal, state and local government web resources and services.